Terug naar catalogus

CZ-6A DEB

ActiefSSO
NORAD 57579·DEBRIS·🇨🇳 China

Gelanceerd Nov 11, 2022 vanaf Taiyuan Satellite Launch Center

Loading…

Volgende Passages (komende 24 uur)

TLE

VerouderendSource: Space-Track

Epoch: Sep 6, 2026, 07:33 UTC

1 57579U 22151AHW 26249.31481111  .00000907  00000-0  40371-3 0  9991
2 57579  98.7531 266.1230 0025310  94.9416 265.4654 14.25204418175020

Volg CZ-6A DEB in realtime met AllMySat

Download on the App Store